Temperature
19 17 16 15 15 14 13 12 12 12 12 11 11 11 11 10 10 10 10 10 10 9 9 9 10 10 10 11 11 11 11 11 11 11 11 11 10 11 11 12 12 12 13
19 18 17 16 15 14 13 12 12 12 12 11 11 11 10 10 10 10 10 9 9 9 9 9 9 10 10 10 11 11 11 11 11 11 11 10 10 10 10 11 11 11 12
19 18 17 16 15 14 13 13 12 12 12 11 11 10 10 10 10 9 9 9 9 9 9 9 9 9 10 10 11 11 11 11 11 11 10 10 9 9 10 10 10 10 11
19 18 17 16 15 14 13 13 12 12 12 11 11 10 10 10 10 9 9 9 9 9 9 9 9 9 10 10 11 11 11 11 11 11 10 9 9 9 9 9 9 10 10
19 18 17 17 16 15 13 13 12 12 12 11 11 10 10 10 9 9 9 9 9 9 9 9 9 9 9 10 11 11 11 11 10 10 9 9 9 8 9 9 9 9 9
19 18 17 17 16 15 14 13 12 12 11 11 11 10 10 10 9 9 9 9 9 9 9 9 9 9 9 10 10 11 10 10 10 9 9 9 8 8 8 8 9 9 9
19 18 17 16 15 14 14 13 12 12 11 11 11 10 10 9 9 9 9 9 9 9 9 9 9 9 9 10 10 10 10 10 9 9 9 9 8 8 8 8 8 8 8
18 18 17 16 15 14 13 13 12 12 11 11 10 10 10 9 9 9 9 9 9 9 9 9 9 9 9 9 10 10 10 10 9 9 9 8 8 8 8 8 8 8 8
18 18 17 16 15 14 13 13 12 11 11 11 10 10 10 9 9 9 9 9 9 9 9 9 9 10 10 10 10 10 9 9 9 9 9 8 8 8 8 8 8 8 8
18 17 16 15 14 13 13 12 12 11 11 10 10 10 10 9 9 9 9 9 9 9 9 9 9 9 10 9 9 9 9 9 9 9 8 8 8 8 8 8 8 8 8
18 17 16 15 14 13 12 11 11 11 10 10 10 10 9 9 8 8 8 9 9 9 9 9 9 9 9 9 9 9 9 9 9 9 9 9 9 8 8 8 8 8 8
18 17 16 15 14 13 12 11 11 10 10 10 9 9 9 9 9 8 9 9 9 9 9 9 9 9 9 8 9 9 9 9 9 9 9 9 9 9 8 7 7 7 7
16 17 16 16 14 13 12 11 11 10 10 10 9 9 9 9 9 9 8 9 9 9 8 8 8 8 8 8 8 9 9 9 9 9 9 9 9 9 9 8 7 7 7
16 16 16 15 15 14 13 12 11 11 10 10 9 9 9 9 9 9 9 8 8 8 8 8 8 8 8 8 8 8 8 9 9 9 9 9 9 9 9 8 8 7 7
17 16 16 15 15 14 13 12 12 11 10 10 10 10 9 9 9 9 9 9 8 8 8 8 8 8 8 8 8 8 8 8 8 9 9 9 9 9 9 9 8 7 7
17 17 16 16 15 14 13 13 12 11 11 10 10 10 9 9 9 9 8 8 8 8 8 8 7 7 7 7 8 8 8 8 8 8 8 9 9 9 9 9 9 8 7
17 17 16 16 15 14 13 12 12 11 10 10 10 10 9 9 9 8 8 8 8 8 8 7 7 7 7 7 7 7 7 8 8 8 8 8 9 9 9 9 9 8 8
17 17 16 16 15 14 13 12 11 11 10 10 9 9 9 9 8 8 8 8 8 7 7 7 7 7 7 7 7 7 7 7 7 8 8 8 8 9 9 9 9 9 8
17 16 16 16 15 14 13 12 11 11 10 10 10 9 9 9 9 8 8 8 7 7 7 7 7 7 6 6 6 6 6 6 7 7 8 8 8 8 9 9 9 9 9
16 16 16 15 14 13 13 12 11 11 11 10 10 10 9 9 9 8 8 8 7 7 7 7 7 7 6 6 6 6 6 6 6 7 7 8 8 8 9 9 9 9 9
15 15 15 14 14 13 13 12 11 11 11 10 10 10 10 9 9 9 8 8 8 7 7 7 7 6 6 6 5 5 5 5 6 6 7 8 8 8 8 9 9 9 9
14 14 14 14 13 13 12 12 11 11 11 11 10 10 10 9 9 9 8 8 8 7 7 7 7 6 6 6 5 4 4 5 6 5 6 6 7 7 7 8 8 8 8
13 13 13 13 12 12 12 12 11 11 11 10 10 10 10 9 9 9 8 8 8 7 7 7 7 6 6 5 4 4 3 5 5 5 4 4 5 5 6 6 7 7 7
13 12 12 12 12 12 11 11 11 10 10 10 9 9 9 9 9 8 8 8 8 7 7 7 7 6 5 5 4 4 4 3 2 3 4 4 4 4 4 4 5 5 6
12 12 12 11 11 11 11 10 10 10 9 9 9 9 8 8 8 8 8 7 7 7 7 7 6 6 5 5 5 4 3 2 1 0 2 3 3 3 3 3 3 3 4
11 11 11 11 11 10 10 10 9 9 9 8 8 8 8 8 7 7 7 7 7 7 6 6 6 5 5 5 4 4 3 2 2 1 1 2 3 3 3 3 2 2 3
Wind_Speed
10 18 22 20 19 17 15 14 13 11 11 10 11 11 11 11 11 11 11 11 11 11 11 11 12 12 13 14 14 15 15 16 17 17 17 17 16 16 16 15 14 15 17
13 21 23 22 20 18 16 14 13 12 11 10 10 10 10 10 10 10 10 10 10 10 11 11 11 11 12 12 13 13 14 14 15 15 15 15 15 15 16 15 15 14 15
15 22 24 23 21 19 17 15 14 13 11 11 10 10 10 9 9 9 9 9 9 10 10 10 10 11 11 11 12 12 12 12 12 12 12 12 13 14 14 14 14 14 14
16 22 23 24 22 20 18 16 15 13 12 11 10 10 9 9 8 8 8 8 8 9 9 9 9 9 10 10 10 11 11 11 11 10 10 11 11 12 13 13 13 13 13
16 21 22 24 23 20 19 17 15 14 12 12 10 10 9 8 8 7 7 7 7 7 8 8 8 8 8 8 9 9 9 9 9 8 9 9 10 10 11 11 11 11 11
15 20 21 24 23 21 19 18 16 15 13 12 11 10 9 8 8 7 6 6 6 6 6 6 6 7 7 7 7 8 8 7 5 7 7 8 8 9 9 9 9 9 9
14 19 21 24 23 21 20 18 17 15 14 13 11 10 9 8 8 7 6 6 5 5 5 5 5 5 5 5 6 6 6 6 4 5 5 6 7 7 7 7 7 7 7
13 17 19 23 22 21 20 19 17 16 14 13 12 11 10 9 8 7 7 6 5 4 3 3 3 3 3 3 4 4 4 3 2 2 3 4 7 5 5 5 5 5 5
12 16 17 20 21 21 20 19 18 17 15 14 13 12 10 9 9 8 7 6 5 4 4 3 2 1 1 1 1 2 2 2 2 1 2 3 7 5 4 3 3 3 3
11 14 16 18 19 19 19 19 18 17 16 14 13 12 10 10 9 9 9 8 7 6 5 4 3 3 2 1 1 1 1 3 3 3 4 3 7 6 4 4 4 4 3
11 13 15 16 17 17 17 17 18 17 16 15 13 13 11 10 10 9 9 8 8 7 7 7 6 6 5 4 3 3 4 5 4 5 6 6 8 8 7 6 6 6 6
13 14 14 15 15 15 14 14 15 15 15 15 13 13 12 10 9 8 7 9 9 8 9 8 8 8 8 7 5 6 7 7 7 7 7 8 10 11 11 10 9 9 9
11 12 13 14 15 14 13 13 12 12 12 14 13 12 11 10 9 9 9 9 10 10 10 8 9 9 9 8 8 8 9 9 8 9 9 11 13 14 14 14 13 13 12
9 12 13 14 14 15 13 12 12 11 11 11 12 13 11 9 9 10 9 10 9 9 10 10 9 10 11 11 12 12 11 11 10 10 11 13 16 17 18 17 17 16 16
9 10 12 14 15 14 13 12 12 12 12 12 12 13 13 11 10 11 11 11 11 11 11 11 12 12 13 13 13 14 14 14 14 14 13 15 18 20 20 21 21 20 20
8 9 10 13 14 15 13 12 12 12 12 12 12 14 15 13 12 11 12 12 13 13 13 13 14 13 13 13 14 15 16 16 16 17 16 16 19 22 23 24 24 24 23
5 7 8 10 12 13 14 14 12 11 12 12 13 14 15 15 15 13 12 12 13 14 15 14 15 13 12 13 14 17 17 18 18 18 18 18 18 20 25 26 27 27 27
4 5 6 6 9 11 11 11 11 11 11 12 12 13 15 16 17 15 12 13 15 14 13 12 11 11 12 12 13 13 14 15 18 20 20 20 19 19 21 27 29 30 30
7 6 5 5 6 7 8 8 9 9 10 11 11 12 13 15 16 16 14 14 15 12 11 11 11 12 13 14 13 13 13 14 16 18 20 22 22 22 21 23 28 32 33
9 8 6 4 3 4 4 5 5 6 7 9 10 11 13 13 15 15 14 15 15 10 11 11 13 13 12 13 13 14 15 16 15 16 18 20 22 24 25 24 23 25 32
12 10 8 6 4 3 3 2 3 4 5 6 8 11 13 13 14 14 12 13 12 11 13 14 13 14 12 11 10 12 15 18 19 17 16 17 19 23 24 25 23 22 22
13 11 10 7 5 3 2 1 2 3 4 5 6 9 11 12 13 12 13 11 11 11 14 14 13 11 10 9 8 9 9 11 13 14 14 15 17 17 18 22 23 23 22
12 11 9 8 6 4 2 1 1 2 3 4 4 5 7 10 11 12 13 13 12 12 12 13 13 14 12 11 11 9 8 8 9 8 12 13 14 14 15 16 21 23 24
10 9 9 8 7 5 2 1 1 3 4 5 5 5 7 8 9 11 12 13 12 11 13 13 13 13 13 12 11 12 14 11 10 9 9 11 13 15 16 15 16 20 22
8 8 7 8 7 5 3 2 2 3 5 5 6 7 7 6 7 9 10 10 11 11 13 14 14 14 13 14 13 12 14 14 16 13 15 16 15 15 15 17 16 17 21
6 6 6 7 6 5 4 3 3 5 6 7 7 7 7 6 6 7 8 9 10 10 12 13 13 15 15 16 14 13 14 12 12 14 17 18 18 16 17 15 16 16 19
Wind_Direction
177 171 172 175 168 166 162 158 153 147 140 133 126 117 109 104 99 94 91 87 82 79 75 72 71 68 65 64 63 61 60 58 57 55 54 59 65 66 64 60 57 58 56
167 169 172 174 170 169 166 163 158 152 147 142 134 125 118 111 103 98 94 90 85 80 77 73 72 71 69 67 66 65 65 62 58 56 56 57 60 63 61 59 57 58 58
161 167 172 174 172 172 170 166 162 158 154 150 142 133 127 119 111 104 100 94 87 82 78 75 74 73 71 69 67 66 66 65 60 57 58 56 58 62 60 59 58 58 58
165 168 173 174 174 174 173 170 167 164 161 156 149 142 135 128 120 114 106 99 92 85 81 77 76 76 74 72 70 68 66 63 58 55 58 51 51 59 58 56 56 56 57
169 172 173 174 175 176 175 173 171 170 169 164 158 153 147 139 132 124 115 108 100 92 86 80 77 77 76 73 71 70 66 61 58 62 60 51 47 55 57 55 53 53 53
172 175 173 176 177 178 178 177 175 175 175 171 167 163 159 152 143 136 128 120 111 103 94 85 78 76 76 75 73 71 65 53 59 64 57 48 42 51 54 53 51 50 48
173 176 175 179 180 181 181 180 179 180 180 178 176 173 171 164 155 149 147 139 132 122 109 96 84 77 75 76 77 73 62 40 49 63 50 39 30 39 46 46 45 44 42
176 177 176 181 183 184 185 184 184 184 185 186 184 182 181 176 169 166 165 160 157 149 138 122 104 87 72 72 79 78 61 26 40 55 36 25 14 18 30 32 30 32 32
179 181 181 183 187 189 190 189 188 188 190 192 192 190 190 188 184 182 180 181 181 180 175 167 155 132 96 62 72 84 67 11 294 317 323 345 351 344 358 358 358 1 6
184 188 186 187 188 191 193 194 192 193 195 197 198 197 197 198 200 198 195 194 198 201 201 205 211 217 225 248 262 237 206 256 270 269 269 295 326 318 312 310 310 310 311
192 194 193 193 191 193 195 193 195 197 198 200 202 200 201 208 208 206 206 201 212 217 219 222 227 232 234 236 244 234 233 258 268 268 265 278 293 295 289 282 281 280 278
198 196 197 198 195 195 196 196 200 201 202 206 209 205 209 214 217 217 198 209 223 229 232 236 238 237 239 241 222 224 250 257 265 259 257 262 270 277 278 273 269 268 267
203 197 201 201 200 200 199 201 203 204 205 210 213 211 210 213 218 224 223 216 224 229 235 232 235 241 244 249 254 252 259 264 260 260 256 254 261 266 270 270 265 262 261
207 202 202 202 204 205 206 206 207 207 209 212 213 213 212 217 223 230 233 235 235 233 238 242 246 248 251 252 253 258 258 255 258 259 258 253 257 261 264 266 265 261 258
210 206 203 204 206 207 211 214 215 215 215 215 215 215 218 222 228 232 237 239 241 243 242 245 249 253 254 256 255 257 259 258 257 256 257 252 253 256 258 261 262 261 258
209 206 202 205 208 209 212 217 220 222 222 226 223 224 224 229 233 236 242 244 246 246 248 250 254 258 259 258 259 258 259 260 258 255 255 254 250 251 253 256 257 258 258
196 197 199 204 208 212 217 222 227 228 230 231 232 233 231 234 239 240 245 247 248 249 250 253 257 260 261 261 261 262 261 259 258 257 256 254 253 249 248 250 253 254 256
129 159 178 190 205 213 219 225 229 234 236 238 240 241 239 240 243 246 248 250 252 252 250 251 255 257 258 260 263 263 261 258 258 258 256 253 251 250 248 246 248 250 251
92 112 138 170 192 207 218 226 234 239 241 245 245 244 244 245 245 246 249 253 255 251 250 252 254 256 261 263 265 266 264 262 260 258 255 253 250 248 249 248 246 247 248
79 88 101 125 158 182 202 221 233 243 247 248 249 249 249 248 246 247 250 254 255 250 250 251 254 256 259 267 273 272 268 264 260 256 255 254 251 248 246 247 247 247 246
75 77 81 91 109 140 162 197 227 247 252 252 252 255 255 253 251 248 250 255 252 249 252 255 256 259 260 263 272 275 269 260 254 252 251 251 250 247 245 244 244 244 246
72 72 74 77 88 111 143 194 245 270 273 273 267 265 262 259 256 253 253 255 254 253 256 256 255 256 259 250 251 277 285 279 254 244 245 247 250 249 247 244 243 242 242
68 66 68 69 75 82 104 175 255 270 273 273 278 278 274 268 263 257 256 258 257 254 256 256 253 249 253 253 237 244 267 277 299 259 243 245 248 249 249 247 244 243 242
73 70 70 69 67 67 74 28 313 307 309 312 310 298 293 281 271 265 262 261 261 258 257 258 255 252 251 255 252 238 244 260 274 285 263 250 252 254 256 253 250 247 244
80 74 72 71 64 58 51 29 332 318 315 314 312 306 305 296 283 275 270 267 263 261 260 260 259 254 249 250 252 251 250 251 251 257 274 275 268 259 256 255 255 252 248
87 77 71 68 60 48 38 22 355 336 326 321 319 316 313 306 297 288 281 273 269 266 265 263 262 258 254 253 252 251 250 250 250 252 265 272 273 271 266 258 254 253 251
Height
1553 1554 1555 1557 1559 1560 1562 1563 1564 1564 1565 1565 1566 1566 1566 1565 1565 1565 1564 1563 1562 1562 1561 1561 1560 1560 1559 1559 1558 1558 1558 1557 1557 1557 1556 1556 1555 1554 1553 1553 1553 1553 1552
1554 1554 1555 1557 1559 1560 1562 1563 1564 1565 1565 1566 1566 1566 1566 1566 1566 1565 1565 1564 1563 1563 1562 1562 1561 1560 1560 1559 1559 1559 1558 1558 1558 1558 1557 1557 1556 1555 1554 1554 1553 1553 1552
1553 1554 1555 1557 1558 1560 1562 1563 1564 1565 1566 1566 1567 1567 1567 1567 1566 1566 1565 1565 1564 1563 1563 1562 1561 1561 1560 1560 1559 1559 1558 1558 1558 1558 1558 1558 1557 1556 1555 1555 1554 1553 1553
1553 1554 1555 1556 1558 1560 1562 1563 1564 1565 1566 1566 1567 1567 1567 1567 1567 1566 1566 1565 1565 1564 1563 1563 1562 1561 1561 1560 1560 1559 1559 1559 1559 1559 1559 1558 1558 1557 1556 1555 1555 1554 1553
1553 1554 1555 1556 1558 1560 1561 1563 1564 1565 1566 1567 1567 1568 1568 1568 1567 1567 1566 1566 1565 1565 1564 1563 1563 1562 1562 1561 1561 1560 1560 1560 1560 1560 1559 1559 1558 1557 1556 1556 1555 1554 1554
1553 1553 1554 1556 1557 1559 1561 1562 1564 1565 1566 1567 1567 1568 1568 1568 1568 1567 1567 1566 1566 1565 1565 1564 1564 1563 1562 1562 1561 1561 1560 1560 1560 1560 1559 1559 1559 1558 1557 1556 1555 1555 1554
1552 1553 1554 1555 1557 1559 1560 1562 1563 1564 1566 1567 1567 1568 1568 1568 1568 1567 1567 1567 1566 1566 1565 1565 1564 1564 1563 1562 1562 1561 1561 1561 1560 1560 1559 1559 1558 1558 1557 1556 1555 1555 1554
1551 1552 1553 1554 1556 1558 1560 1561 1562 1564 1565 1566 1567 1567 1568 1568 1568 1568 1567 1567 1566 1566 1566 1565 1565 1564 1563 1563 1562 1562 1561 1561 1560 1560 1559 1559 1558 1557 1557 1556 1555 1554 1554
1549 1551 1552 1553 1555 1557 1558 1560 1562 1563 1564 1565 1566 1567 1568 1568 1568 1568 1567 1567 1566 1566 1566 1565 1565 1564 1564 1563 1562 1562 1561 1561 1560 1560 1559 1558 1557 1557 1556 1555 1554 1554 1553
1547 1549 1550 1552 1554 1555 1557 1559 1561 1562 1563 1564 1565 1566 1567 1567 1567 1567 1567 1566 1566 1566 1566 1565 1565 1564 1563 1563 1562 1562 1561 1560 1559 1559 1558 1557 1556 1556 1555 1554 1554 1553 1552
1545 1546 1548 1550 1552 1554 1556 1558 1559 1561 1562 1563 1564 1565 1565 1566 1567 1567 1566 1566 1566 1565 1565 1564 1564 1563 1563 1562 1561 1561 1560 1559 1558 1557 1557 1556 1555 1554 1554 1553 1552 1552 1551
1542 1544 1546 1548 1550 1552 1554 1556 1558 1559 1560 1561 1563 1563 1564 1565 1565 1565 1565 1565 1565 1564 1564 1564 1563 1562 1562 1561 1560 1559 1559 1558 1557 1555 1555 1554 1553 1552 1552 1551 1551 1550 1549
1540 1541 1543 1545 1548 1550 1552 1554 1555 1557 1558 1559 1561 1561 1562 1562 1563 1563 1563 1563 1563 1563 1563 1562 1561 1561 1560 1559 1558 1557 1556 1555 1554 1553 1552 1551 1550 1550 1549 1548 1548 1548 1547
1536 1538 1541 1543 1545 1547 1549 1551 1553 1554 1555 1557 1558 1559 1559 1560 1560 1561 1561 1561 1561 1560 1560 1560 1559 1558 1557 1556 1555 1554 1553 1552 1551 1550 1549 1548 1547 1546 1546 1545 1545 1545 1544
1533 1536 1538 1540 1542 1544 1546 1548 1550 1551 1553 1554 1555 1556 1556 1557 1557 1558 1558 1558 1558 1557 1557 1556 1556 1555 1554 1553 1551 1550 1549 1548 1547 1546 1545 1544 1543 1542 1541 1541 1541 1540 1540
1531 1533 1535 1537 1540 1542 1543 1545 1547 1549 1550 1551 1551 1552 1553 1554 1554 1554 1554 1554 1554 1554 1553 1553 1552 1551 1549 1548 1547 1546 1544 1543 1542 1541 1539 1538 1538 1537 1536 1536 1535 1535 1535
1529 1531 1533 1535 1537 1538 1540 1542 1544 1545 1546 1547 1548 1549 1549 1550 1550 1550 1550 1550 1549 1549 1549 1548 1547 1546 1544 1543 1541 1540 1538 1537 1536 1535 1533 1532 1531 1530 1530 1530 1529 1529 1529
1528 1530 1531 1533 1534 1536 1537 1539 1540 1541 1542 1543 1544 1544 1545 1545 1546 1546 1545 1545 1545 1544 1543 1542 1541 1540 1538 1536 1535 1533 1531 1529 1528 1527 1526 1524 1523 1522 1522 1522 1522 1522 1521
1529 1530 1531 1531 1532 1533 1535 1536 1537 1538 1539 1539 1540 1540 1540 1540 1540 1540 1540 1540 1539 1538 1537 1536 1535 1534 1532 1530 1528 1525 1523 1521 1519 1518 1517 1516 1514 1513 1513 1513 1513 1513 1513
1530 1531 1531 1531 1532 1532 1533 1534 1535 1535 1535 1536 1536 1536 1535 1535 1535 1535 1534 1534 1533 1531 1530 1529 1528 1527 1525 1523 1520 1517 1514 1512 1510 1508 1507 1506 1505 1504 1503 1503 1503 1502 1503
1532 1532 1532 1532 1532 1532 1533 1533 1533 1533 1533 1533 1532 1532 1531 1531 1530 1529 1528 1527 1526 1525 1524 1523 1521 1520 1518 1517 1513 1508 1505 1503 1499 1497 1496 1496 1495 1495 1493 1493 1492 1491 1491
1534 1534 1534 1534 1534 1533 1533 1533 1533 1532 1531 1531 1530 1529 1527 1526 1525 1524 1523 1522 1521 1519 1518 1517 1515 1513 1511 1510 1507 1504 1499 1496 1492 1488 1487 1485 1485 1485 1483 1482 1481 1480 1479
1536 1536 1536 1536 1535 1535 1534 1533 1532 1531 1530 1529 1527 1526 1524 1523 1521 1520 1518 1517 1515 1513 1511 1510 1509 1506 1504 1503 1501 1499 1496 1490 1487 1482 1479 1477 1476 1474 1473 1472 1470 1469 1468
1538 1538 1538 1537 1536 1535 1534 1533 1532 1530 1529 1527 1525 1523 1521 1519 1518 1516 1514 1512 1510 1508 1506 1504 1502 1500 1497 1495 1494 1491 1489 1486 1483 1474 1473 1470 1467 1465 1463 1461 1459 1458 1457
1539 1538 1538 1538 1537 1535 1534 1532 1530 1529 1527 1525 1522 1520 1518 1516 1514 1511 1509 1507 1505 1503 1500 1498 1496 1493 1490 1488 1486 1484 1481 1478 1474 1470 1462 1462 1461 1458 1454 1451 1449 1447 1446
1539 1538 1538 1537 1536 1534 1532 1531 1529 1526 1524 1522 1519 1517 1515 1512 1510 1507 1505 1502 1500 1497 1494 1491 1489 1486 1483 1480 1478 1475 1473 1470 1467 1463 1456 1452 1450 1448 1447 1443 1440 1437 1435